Current Weather Conditions: station 62102

sailwx.info

Wind from 220 at 20 knots

Wave height 2.4 meters (7 feet), 6 second period

Air temperature 7.4° C
Visibility: greater than 10.8 NM
Dewpoint 6.5° C

Last reported at 2020-Jan-26 01:00 UTC.
Time now 2020-Jan-26 02:48 UTC

Location: N 57°54' E 001°48'.
View on Google Maps.

See reports from other nearby stations

  
Tides and Currents Weather Stations Pressure Air Temp Water Temp Dewpoint Dewpoint Depression Visibility Wind Speed Wind Dir Waves Ship Positions
date/time (UTC)wind fromknots sea level pressurealtimeterstation pressurevisibilityair tempwater tempwave heightnotes
2020-Jan-26 01:00 220 20 10.8 7.4 2.4
2020-Jan-26 00:00 220 18 10.8 7.6 2.6
2020-Jan-25 23:00 220 19 10.8 7.7 2.7
2020-Jan-25 22:00 230 19 10.8 7.6 2.9
2020-Jan-25 21:00 230 20 10.8 7.5 3.0
2020-Jan-25 20:00 240 21 10.8 7.3 2.8
2020-Jan-25 19:00 230 20 10.8 7.2 3.0
2020-Jan-25 18:00 240 20 10.8 7.1 3.1
2020-Jan-25 17:00 230 20 10.8 7.2 2.8
2020-Jan-25 16:00 240 20 10.8 7.1 2.8
2020-Jan-25 15:00 230 20 10.8 6.9 2.6
2020-Jan-25 14:00 230 20 10.8 6.8 2.9
2020-Jan-25 13:00 230 21 10.8 7.0 2.6
2020-Jan-25 12:00 230 20 10.8 7.1 2.4
2020-Jan-25 11:00 220 20 10.8 7.2 2.4
2020-Jan-25 10:00 230 20 10.8 7.3 2.1
2020-Jan-25 09:00 220 19 10.8 7.4 2.0
2020-Jan-25 08:00 220 18 10.8 7.4 1.9
2020-Jan-25 07:00 220 18 10.8 7.6 2.0
2020-Jan-25 06:00 220 15 10.8 7.5 2.3
2020-Jan-25 05:00 220 13 10.8 7.4 2.3
2020-Jan-25 04:00 220 15 10.8 7.1 2.5
2020-Jan-25 03:00 210 13 10.8 7.2 2.6
2020-Jan-25 02:00 220 13 10.8 7.4 2.2
2020-Jan-25 01:00 230 12 10.8 7.2 2.4
2020-Jan-25 00:00 240 12 27.0 7.2 2.3
2020-Jan-24 23:00 260 12 27.0 7.2 2.0
2020-Jan-24 22:00 270 11 27.0 7.2 2.0
2020-Jan-24 21:00 260 11 10.8 7.3 2.3
2020-Jan-24 20:00 280 9 10.8 7.6 2.3
2020-Jan-24 19:00 290 7 10.8 7.7 2.3
2020-Jan-24 18:00 290 12 10.8 7.6 2.6
2020-Jan-24 17:00 300 13 5.4 7.5 2.6
2020-Jan-24 16:00 290 13 10.8 8.1 2.9
2020-Jan-24 15:00 290 14 10.8 7.9 3.0
2020-Jan-24 14:00 280 11 10.8 8.1 3.0
2020-Jan-24 13:00 290 14 10.8 8.2 2.7
2020-Jan-24 12:00 290 12 10.8 8.3 2.7
2020-Jan-24 11:00 280 12 10.8 8.0 2.7
2020-Jan-24 10:00 290 12 10.8 8.3 2.5
2020-Jan-24 09:00 290 14 10.8 8.3 2.2
2020-Jan-24 08:00 280 12 10.8 8.0 2.0
2020-Jan-24 07:00 290 12 10.8 8.0 1.9
2020-Jan-24 06:00 300 12 5.4 7.7 2.2
2020-Jan-24 05:00 310 11 5.4 7.7 2.2
2020-Jan-24 04:00 310 12 10.8 7.7 2.2
2020-Jan-24 03:00 280 13 10.8 8.0 2.2
2020-Jan-24 02:00 280 12 5.4 8.1 2.0